This demonstration page uses our WeatherBlox Daily Observations layout. Learn more.

Left ArrowRight Arrow

Hourly Observations for March 4, 2016

Temp ( °F °C ) Dew Point ( °F °C ) Humidity (%) Winds ( mph kmh ) Pressure ( in mb ) Visibility ( mi km ) Precip ( " mm )
12:54 am 00:54 Clear 23 -5 21 -6.1 92 92 Calm 30.17 1022 7 11 0.00 0.00
1:54 am 01:54 Clear 26 -3.3 22 -5.6 84 84 Calm 30.14 1021 7 11 0.00 0.00
2:54 am 02:54 Clear 23 -5 20 -6.7 88 88 Calm 30.15 1021 7 11 0.00 0.00
3:54 am 03:54 Clear with Mist and Fog 24 -4.4 20 -6.7 84 84 Calm 30.13 1020 6 10 0.00 0.00
4:54 am 04:54 Clear with Mist and Fog 28 -2.2 24 -4.4 85 85 Calm 30.12 1020 6 10 0.00 0.00
5:54 am 05:54 Clear with Mist and Fog 27 -2.8 24 -4.4 89 89 Calm 30.11 1020 6 10 0.00 0.00
6:54 am 06:54 Clear with Mist and Fog 29 -1.7 26 -3.3 89 89 SSE 8 13 30.11 1020 6 10 0.00 0.00
7:54 am 07:54 Sunny with Mist and Fog 31 -0.6 28 -2.2 89 89 S 9 15 30.11 1020 4 6 0.00 0.00
8:54 am 08:54 Sunny with Mist and Fog 35 1.7 31 -0.6 85 85 S 10 17 30.09 1019 4 6 0.00 0.00
9:54 am 09:54 Hazy 41 5 33 0.6 73 73 S 15 24 30.06 1018 5 8 0.00 0.00
10:54 am 10:54 Sunny 46 7.8 33 0.6 61 61 S 16 26 30.02 1017 7 11 0.00 0.00
11:54 am 11:54 Sunny 50 10 33 0.6 52 52 S 16 26 30.00 1016 8 13 0.00 0.00
12:54 pm 12:54 Sunny 55 12.8 34 1.1 45 45 SW 15 24 29.99 1016 9 14 0.00 0.00
1:54 pm 13:54 Sunny 59 15 32 0 36 36 W 18 30 29.99 1016 10 16 0.00 0.00
2:54 pm 14:54 Sunny 58 14.4 32 0 38 38 NW 13 20 30.00 1016 10 16 0.00 0.00
3:54 pm 15:54 Sunny 61 16.1 32 0 34 34 N 8 13 29.99 1016 10 16 0.00 0.00
4:54 pm 16:54 Sunny 61 16.1 32 0 34 34 N 17 28 30.01 1016 10 16 0.00 0.00
5:54 pm 17:54 Sunny 57 13.9 33 0.6 41 41 NNW 7 11 30.04 1017 10 16 0.00 0.00
6:54 pm 18:54 Clear 49 9.4 32 0 52 52 Calm 30.07 1018 10 16 0.00 0.00
7:54 pm 19:54 Clear 42 5.6 31 -0.6 65 65 Calm 30.11 1020 10 16 0.00 0.00
8:54 pm 20:54 Clear 40 4.4 30 -1.1 68 68 NNW 6 9 30.12 1020 8 13 0.00 0.00
9:54 pm 21:54 Clear 34 1.1 27 -2.8 76 76 N 5 7 30.14 1021 8 13 0.00 0.00
10:54 pm 22:54 Clear 34 1.1 28 -2.2 79 79 Calm 30.15 1021 9 14 0.00 0.00
11:54 pm 23:54 Clear 33 0.6 27 -2.8 78 78 Calm 30.14 1021 8 13 0.00 0.00

Powered by AerisWeather